Terminal Aerodrome Forecast
Issued by NWS

Home | Current Version | Previous Version | Text Only | Print | Product List | Glossary On
Versions: 1 2 3 4 5 6 7 8 9 10 11 12
000
FTUS44 KMAF 031100
TAFHOB
TAF
KHOB 031122Z 0312/0412 16010KT P6SM SCT200
     FM031900 15012G22KT P6SM BKN100
     FM040400 15009KT P6SM BKN120=

USA.gov is the U.S. government's official web portal to all federal, state and local government web resources and services.